User: anonymous   Login
Location: Unspecified
(0.0000°N, 0.0000°E)
Time: 22:40:38
(UTC+00:00)
Language:

COSMOS 2463 - Orbit

View from above orbital plane
View from above orbital plane
View from above satellite
View from above satellite

Ground track
Ground track

The orbit data is extracted from the following two-line orbital elements,

1 36519U 10017A   21125.23414065  .00000094  00000-0  87856-4 0  9990
2 36519  82.9633 182.6515 0034567 275.7006  84.0206 13.71455502551832
Epoch (UTC): 05 May 2021 05:37:09
Eccentricity: 0.0034567
inclination: 82.9633°
perigee height: 969 km
apogee height: 1020 km
right ascension of ascending node: 182.6515°
argument of perigee: 275.7006°
revolutions per day: 13.71455502
mean anomaly at epoch: 84.0206°
orbit number at epoch: 55183

The dashed part of the orbit path shows where the satellite is in the earth's shadow,  

DLR